Flag for U.S.A. Weather past 2 weeks in Atlantic City, New Jersey, U.S.A.

Now
76 °F

Clear.


Feels Like: 76 °F
Forecast: 74 / 85 °F
Wind: 8 mph from West

Location: Atlantic City International Airport

Current Time: Jul 31, 2015 at 1:23:41 AM

Latest Report: Jul 31, 2015 at 12:54 AM


Visibility: 9 mi

Pressure: 29.87 "Hg

Humidity: 88%

Dew point: 72 °F

Location of Atlantic CityLocation

Historic Weather in Atlantic City — Graph

°F

Atlantic City temperature yesterday

Maximum temperature yesterday: 87 °F (at 12:54 PM)
Minimum temperature yesterday: 76 °F (at 3:54 AM)
Average temperature yesterday: 80 °F

Past Weeks' High & Low Weather Summary

 TemperatureHumidityPressure
High94 °F (Jul 20, 3:54 PM)97% (Jul 27, 5:54 AM)30.12 "Hg (Jul 27, 5:54 AM)
Low59 °F (Jul 17, 4:54 AM)35% (Jul 25, 11:54 AM)29.61 "Hg (Jul 21, 5:54 PM)
Average77 °F72%29.92 "Hg
* Reported Jul 15 11:54 PM — Jul 30 11:54 PM, Atlantic City, Weather by CustomWeather, © 2015

Note: Actual official high and low records may vary slightly from our data, if they occured in-between our weather recording intervals... More about our weather records

Advertising

Atlantic City weather history for previous 24 hours

 ConditionsComfort  
Time TempWeatherWind HumidityBarometerVisibility
11:54 PM
Thu, Jul 30
76 °FPassing clouds.6 mph91%29.87 "Hg10 mi
10:54 PM77 °FPassing clouds.6 mph88%29.87 "Hg10 mi
9:54 PM78 °FPassing clouds.6 mph87%29.88 "Hg10 mi
8:54 PM78 °FPassing clouds.No wind87%29.86 "Hg10 mi
7:54 PM77 °FSunny.No wind90%29.85 "Hg9 mi
6:54 PM77 °FBroken clouds.6 mph90%29.85 "Hg10 mi
5:54 PM81 °FSunny.10 mph77%29.83 "Hg10 mi
4:54 PM82 °FSunny.15 mph77%29.84 "Hg10 mi
3:54 PM87 °FScattered clouds.15 mph65%29.85 "Hg10 mi
2:54 PM85 °FScattered clouds.10 mph68%29.87 "Hg10 mi
1:54 PM87 °FSunny.10 mph67%29.88 "Hg10 mi
12:54 PM87 °FPassing clouds.13 mph65%29.90 "Hg10 mi
11:54 AM85 °FPassing clouds.15 mph70%29.92 "Hg10 mi
10:55 AM84 °FPassing clouds.9 mph70%29.93 "Hg10 mi
9:54 AM83 °FPartly sunny.9 mph72%29.93 "Hg10 mi
8:54 AM82 °FScattered clouds.13 mph74%29.94 "Hg10 mi
7:54 AM79 °FPartly sunny.9 mph82%29.94 "Hg10 mi
6:54 AM77 °FOvercast.10 mph85%29.94 "Hg10 mi
5:54 AM76 °FPassing clouds.9 mph88%29.94 "Hg10 mi
4:54 AM76 °FClear.8 mph88%29.93 "Hg10 mi
3:54 AM76 °FClear.7 mph88%29.95 "Hg10 mi
2:54 AM77 °FClear.7 mph85%29.96 "Hg10 mi
1:54 AM77 °FClear.8 mph82%29.96 "Hg10 mi
Weather by CustomWeather, © 2015

See weather overviewHow to use our weather pages